Location: Borderline Observatory
(42.7345°N, 72.8696°W)
Time: 15:22:28
(UTC-04:00)

Daily predictions for brighter satellites

Satellite Brightness Start Highest point End
(mag) Time Altitude Azimuth Time Altitude Azimuth Time Altitude Azimuth
Cosmos 468 Rocket 4.5 21:00:03 10° N 21:04:59 45° ENE 21:09:53 10° SE
Cosmos 1356 Rocket 3.6 21:02:14 10° S 21:06:25 58° E 21:10:39 10° NNE
Cosmos 1242 Rocket 2.7 21:03:31 10° N 21:07:15 66° E 21:10:55 10° SSE
Cosmos 1603 4.1 21:02:13 10° NNW 21:07:46 52° ENE 21:13:14 10° SE
ERS-1 Rocket 3.4 21:03:06 10° SE 21:07:56 49° ENE 21:12:47 10° N
Cosmos 1850 Rocket 4.3 21:05:12 10° SSW 21:10:22 72° WNW 21:15:35 10° NNE
ARGOS 4.0 21:06:00 10° SE 21:10:50 35° ENE 21:15:41 10° N
CZ-4B DEB 2.5 21:08:05 10° SSE 21:11:02 86° ENE 21:14:02 10° N
Cosmos 1674 2.6 21:07:25 10° S 21:11:08 69° E 21:14:53 10° NNE
Cosmos 1867 3.8 21:08:12 10° SW 21:13:39 80° NW 21:19:09 10° NNE
RESURS DK-1 2.7 21:10:20 10° NNW 21:14:27 54° ENE 21:18:31 10° SE
SAR-Lupe-1 4.1 21:15:02 10° SSE 21:18:37 81° ENE 21:22:14 10° N
Cosmos 1943 4.1 21:15:29 10° N 21:20:39 35° ENE 21:25:48 10° ESE
Cosmos 1340 Rocket 4.5 21:18:13 10° SW 21:22:00 38° WNW 21:25:50 10° N
Milstar 3 Cent rocket 4.5 21:18:04 10° SW 21:23:21 22° S 21:31:39 10° SE
SL-16 R/B 3.3 21:18:47 10° NW 21:24:05 42° WSW 21:29:22 10° S
Cosmos 371 Rocket 3.9 21:19:41 10° N 21:24:19 44° ENE 21:28:43 11° SE
Cosmos 2228 Rocket 4.1 21:21:42 10° N 21:25:52 33° ENE 21:29:45 11° SE
Resurs 01 Rocket 4.2 21:23:31 10° SW 21:26:35 18° W 21:29:40 10° NW
Cosmos 1459 Rocket 4.0 21:20:56 10° N 21:27:15 88° E 21:33:26 10° S
Cosmos 1908 3.6 21:23:42 10° NNW 21:27:34 66° W 21:31:22 10° S
Cosmos 1939 Rocket 4.1 21:24:47 10° S 21:28:36 42° W 21:32:30 10° NNW
KORONAS-FOTON 3.8 21:31:15 10° S 21:35:02 89° WSW 21:38:51 10° N
CZ-3B R/B 4.0 21:33:36 10° SW 21:36:40 76° SE 21:47:15 10° NE
Cosmos 2100 Rocket 4.3 21:32:31 10° NNW 21:38:49 71° W 21:45:09 10° S
H-2A R/B 2.8 21:36:46 12° SE 21:41:16 41° ENE 21:46:21 10° N
ERBS 2.2 21:39:18 10° NW 21:42:42 86° NE 21:45:11 17° SE
Cosmos 1076 Rocket 4.3 21:39:00 10° SSW 21:43:16 53° W 21:47:33 10° N
GPS 2-05 Rocket1 4.1 21:42:08 10° SW 21:44:24 19° S 21:45:05 17° SSE
Cosmos 2173 Rocket 4.3 21:39:15 10° NNW 21:45:22 69° W 21:51:34 10° S
Lacrosse 5 2.1 21:42:51 10° NW 21:47:51 61° SW 21:51:53 16° SSE
Cosmos 2123 Rocket 4.0 21:42:45 10° S 21:48:50 66° E 21:55:00 10° NNE
SPOT 5 3.1 21:44:58 13° SSE 21:49:15 66° ENE 21:54:23 10° N
Meteor 2-10 4.3 21:44:57 10° N 21:50:34 67° ENE 21:55:29 14° SSE
SL-08 RB Rocket 3.9 21:47:44 15° SSE 21:51:27 60° ENE 21:56:00 10° N
Cosmos 2061 Rocket 4.4 21:45:49 10° NNW 21:52:09 67° W 21:58:30 10° S
NOAA 11 4.4 21:47:43 10° S 21:53:08 74° WSW 21:58:36 10° NNW
Cosmos 2151 3.7 21:51:17 17° SSE 21:54:06 35° E 21:58:01 10° NNE
Abrixas rocket 2.2 21:52:11 10° WNW 21:55:25 69° SSW 21:57:18 22° SE
Cosmos 1408 Rocket 4.0 21:51:36 10° SSW 21:55:51 63° W 22:00:10 10° N
MetOp-B 4.3 21:53:16 11° S 21:58:29 77° WSW 22:03:53 10° NNW
BREEZE-M DEB (TANK) 3.8 21:59:24 10° WNW 22:01:32 31° N 22:06:23 10° ENE
Cosmos 1626 3.1 22:03:27 22° SE 22:04:56 30° E 22:08:14 10° NNE
Cosmos 1703 4.2 22:03:52 22° SE 22:05:38 31° E 22:09:11 10° NNE
Cosmos 1356 3.8 22:05:04 23° SSE 22:06:54 45° E 22:10:15 10° NNE
Cosmos 1814 Rocket 4.2 22:02:05 10° NNW 22:07:26 73° WSW 22:11:34 17° S
Cosmos 1726 2.8 22:04:08 10° NNW 22:07:44 52° W 22:10:47 13° S
Cosmos 1725 Rocket 4.0 22:04:28 10° N 22:10:46 86° W 22:16:09 14° S
Meteor 1-11 4.3 22:06:42 13° S 22:11:53 63° E 22:17:37 10° NNE
Cosmos 1763 Rocket 3.4 22:07:49 10° NNW 22:12:56 82° WSW 22:16:28 20° SSE
Cosmos 841 Rocket 3.5 22:07:53 10° NNW 22:13:10 79° ENE 22:16:36 22° SSE
Terra 2.6 22:11:39 21° SE 22:14:21 39° ENE 22:18:46 10° N
Cosmos 1500 Rocket 3.5 22:13:37 16° S 22:17:10 78° E 22:21:38 10° N
Tiangong 1 0.8 22:15:09 10° W 22:17:55 56° SSW 22:18:28 44° SSE
Cosmos 2263 Rocket 2.1 22:12:30 10° SSW 22:18:01 69° ESE 22:23:35 10° NNE
Cosmos 1486 Rocket 4.0 22:13:01 10° SSW 22:18:18 87° WNW 22:23:39 10° NNE
Cosmos 304 Rocket 4.2 22:16:13 10° N 22:20:53 49° ENE 22:23:24 25° SE
Abrixas 2.1 22:20:08 10° WSW 22:22:51 88° NNW 22:25:34 10° ENE
Cosmos 1300 3.6 22:19:51 10° NNW 22:23:31 45° W 22:26:17 16° SSW
Meteor 1-27 4.2 22:21:29 10° N 22:27:20 84° E 22:31:05 23° SSE
DMSP B5D2-2 4.1 22:22:51 10° NNE 22:28:03 63° ESE 22:31:32 21° S
IGS 5A 3.9 22:26:24 28° SE 22:28:12 47° ENE 22:32:13 10° N
CARTOSAT-1 3.9 22:26:14 28° SE 22:28:14 52° ENE 22:32:27 10° N
USA 234 3.2 22:26:40 10° NE 22:33:12 69° SE 22:39:43 10° SW
SPOT 1/Viking Rocket 3.8 22:33:04 20° S 22:36:33 63° WSW 22:41:41 10° NNW
Cosmos 1805 Rocket 4.2 22:35:31 30° SE 22:36:43 37° E 22:40:44 10° NNE
Cosmos 1151 Rocket 3.2 22:32:44 10° NNW 22:37:07 70° W 22:39:31 26° S
Cosmos 1633 Rocket 4.4 22:39:53 22° E 22:40:29 22° E 22:43:54 10° NE
Cosmos 836 Rocket 4.5 22:41:53 10° NNW 22:47:13 88° ENE 22:49:45 32° SSE
CZ-4C R/B 2.7 22:46:15 31° SE 22:47:37 36° ESE 22:52:52 10° NE
H-2A R/B 2.1 22:47:34 37° SE 22:49:06 65° ENE 22:53:17 10° N
Cosmos 1844 Rocket 3.6 22:50:05 26° ESE 22:50:57 27° ESE 22:55:34 10° NE
Spot 4 4.4 22:49:54 31° SE 22:51:49 48° ENE 22:56:30 10° N
Cosmos 2058 3.5 22:50:48 20° SSW 22:53:30 55° W 22:57:39 10° N
Cosmos 1455 2.1 22:52:29 10° N 22:56:22 90° WNW 22:57:20 49° S
Cosmos 2233 Rocket 4.4 22:54:02 10° NNW 23:00:06 57° W 23:04:08 21° SSW
Cosmos 1943 4.3 22:59:33 10° NW 23:04:40 36° WSW 23:07:41 21° SSW
Cosmos 1503 Rocket 4.3 23:00:28 14° SSW 23:04:51 66° WNW 23:10:01 10° NNE
Cosmos 540 Rocket 3.5 23:01:21 10° NNW 23:06:31 74° WSW 23:08:29 38° S
CZ-4B R/B 3.7 23:02:50 10° NNE 23:08:03 58° E 23:09:44 39° SSE
SME Rocket 3.4 23:11:22 43° ESE 23:12:21 56° ENE 23:17:08 10° N
Cosmos 968 Rocket 3.7 23:12:33 41° SSE 23:13:51 51° ESE 23:18:56 10° NNE
H-2A R/B 3.7 23:17:24 15° SW 23:20:47 27° W 23:25:21 10° NW
CZ-2C R/B 3.7 23:17:10 10° NE 23:21:35 26° E 23:22:07 26° ESE
Cosmos 2242 Rocket 4.1 23:18:40 10° N 23:23:06 46° ENE 23:23:57 41° ESE
Meteor 2-10 Rocket 4.4 23:19:48 10° N 23:24:54 40° ENE 23:26:39 32° ESE
Cosmos 1869 3.1 23:21:10 10° N 23:25:07 84° W 23:25:35 68° S
Cosmos 1933 4.2 23:25:28 10° N 23:29:15 35° ENE 23:29:33 35° E
Sich 1 2.9 23:28:52 58° SSW 23:29:41 86° W 23:33:59 10° N
Cosmos 1315 Rocket 4.3 23:38:01 25° ENE 23:38:01 25° ENE 23:40:46 10° NE
Cosmos 1513 Rocket 4.5 23:31:37 10° N 23:37:50 77° W 23:40:12 39° S
Cosmos 1400 Rocket 3.1 23:38:32 54° E 23:38:32 54° E 23:42:35 10° NNE
CZ-4C R/B 3.5 23:40:17 61° SSW 23:40:55 75° WSW 23:45:22 10° NNW
Cosmos 292 Rocket 3.8 23:36:54 10° NNW 23:41:41 70° ENE 23:42:36 55° SE
Cosmos 1707 Rocket 4.3 23:43:05 10° NNW 23:47:21 44° W 23:48:18 38° SW
Cosmos 2278 Rocket 2.9 23:51:08 34° ESE 23:51:28 34° ESE 23:56:32 10° NE
Terra 3.5 23:50:32 19° WSW 23:52:13 23° W 23:55:58 10° NW
ALOS 2 3.2 23:52:39 42° E 23:53:13 44° ENE 23:57:24 10° N
